Location: Newark
(48.1500°N, 13.1167°E)
Time: 00:57:59
(UTC+00:00)

KAITUO 1B - Pass Details

Date: 04 December 2021
Orbit: 486 x 507 km, 97.4° (Epoch: 16 January)

Event Time Altitude Azimuth Distance (km) Brightness Sun altitude
Rises 04:50:13 0° 26° (NNE) 2,629 ? -17.6°
Reaches altitude 10° 04:52:45 10° 43° (NE) 1,734 ? -17.2°
Maximum altitude 04:55:35 20° 93° (E) 1,204 ? -16.7°
Drops below altitude 10° 04:58:24 10° 143° (SE) 1,714 ? -16.3°
Sets 05:00:53 0° 160° (SSE) 2,588 ? -15.9°
